Current Version              Previous Version:    01  02  03  04  05  06  07  08  09  10  11  12  13  14  15  16  17  18  19  20  21  22  23  24  25  26  27  28  29  30  
   31  32  33  34  35  36  37  38  39  40  41  42  43  44  45  46  47  48  49  50  51  52  53  54  55  56  57  58  59  60  

[Printable]
658
ASUS44 KFWD 310401
RWRTX
NORTH TEXAS HOURLY WEATHER ROUNDUP
NATIONAL WEATHER SERVICE FORT WORTH TX
1100 PM CDT WED JUL 30 2014

NOTE: "FAIR" INDICATES FEW OR NO CLOUDS BELOW 12,000 FEET WITH NO
SIGNIFICANT WEATHER AND/OR OBSTRUCTIONS TO VISIBILITY.

TXZ118-119-310500-
DALLAS/FORT WORTH METROPLEX

CITY           SKY/WX    TMP DP  RH WIND       PRES   REMARKS
DFW AIRPORT    PTCLDY    83  71  67 SE22G28   29.89F
DALLAS LOVE    PTCLDY    82  71  69 SE18G29   29.90F
FTW MEACHAM    PTCLDY    85  66  53 SE17      29.89F
DAL-EXECUTIVE  PTCLDY    82  71  69 SE15G22   29.90F
FTW-ALLIANCE   MOCLDY    82  70  66 S16       29.88F
FTW-NAS-JRB    MOCLDY    87  64  46 SE16      29.93F
FTW-SPINKS     PTCLDY    83  66  56 SE10      29.93S
ARLINGTON      CLEAR     83  71  67 SE18      29.90F
GRAND PRAIRIE  PTCLDY    83  70  65 E9G21     29.91F
ADDISON        PTCLDY    82  68  62 SE15G26   29.93R
MESQUITE       PTCLDY    80  69  70 SE12      29.91F
LANCASTER      PTCLDY    81  69  67 SE8       29.93F
$$

TXZ091>094-102>105-117-120-121-131>134-310500-
NORTH CENTRAL TEXAS

CITY           SKY/WX    TMP DP  RH WIND       PRES   REMARKS
SHRMAN/DENISON CLOUDY    74  69  84 E15G23    29.94R THUNDER
GAINESVILLE    HVY RAIN  70  69  97 NW13G18   29.97R VSB 1/2
BOWIE          LGT RAIN  79  72  80 CALM      29.95R
BRIDGEPORT     MOCLDY    83  66  57 S3        29.93R
DECATUR        PTCLDY    82  65  56 S13       29.92R
DENTON         PTCLDY    82  71  69 SE15G21   29.90R
MCKINNEY       PTCLDY    78  72  81 SE12      29.91F
GREENVILLE     MOCLDY    75  68  78 E13       29.95S
ROCKWALL       PTCLDY    80  70  71 SE14      29.92S
TERRELL        PTCLDY    83  70  64 SE13      29.94F
WAXAHACHIE     CLEAR     81  69  66 SE12      29.94F
CLEBURNE       PTCLDY    84  72  65 SE13G18   29.94R
GRANBURY       MOCLDY    86  69  56 SE10      29.92R
$$

TXZ083>090-098>101-113>116-127>130-139>142-154-155-310500-
WESTERN NORTH TEXAS

CITY           SKY/WX    TMP DP  RH WIND       PRES   REMARKS
WICHITA FALLS  MOCLDY    72  68  87 N14       29.97R
WF-KICKAPOO    CLOUDY    74  68  82 N13G21    29.98R
VERNON         MOCLDY    73  65  78 N14G21    30.05R
ABILENE        CLOUDY    81  68  64 W7        30.00R
ABILENE-DYESS  MOCLDY    80  67  63 N13       30.00R
BRECKENRIDGE   CLOUDY    84  63  49 N3        29.95R
GRAHAM         MOCLDY    82  69  63 W6        29.93R
MINERAL WELLS  MOCLDY    83  68  60 S9        29.91R
STEPHENVILLE   MOCLDY    84  64  49 S12       29.96R
COMANCHE       MOCLDY    84  58  41 S12       29.94R
BROWNWOOD      CLOUDY    86  54  32 SE8       29.94R
COLEMAN        CLOUDY    86  52  31 S7        29.96R
BRADY          CLEAR     86  57  37 SE10      29.96R
$$

TXZ143>147-156>162-174-175-310500-
CENTRAL TEXAS

CITY           SKY/WX    TMP DP  RH WIND       PRES   REMARKS
WACO           CLEAR     85  69  58 SE15G21   29.93R
WACO-MCGREGOR  PTCLDY    84  66  54 SE14G23   29.94R
HILLSBORO      PTCLDY    83  67  59 SE9G16    29.93S
CORSICANA      CLEAR     82  70  66 SE13      29.95F
MEXIA          CLEAR     81  71  73 SE6       29.95R
CAMERON        PTCLDY    84  73  69 SE12      29.94R HX  90
TEMPLE         PTCLDY    82  66  57 SE14      29.94S
KILLEEN        PTCLDY    84  68  58 SE15      29.94R
KILLEEN-SKYLRK PTCLDY    82  66  57 SE9       29.93S
FORT HOOD      PTCLDY    86  69  56 SE10      29.94R HX  90
GATESVILLE     CLEAR     84  70  61 SE7       29.96R
HAMILTON       PTCLDY    83  65  54 SE14G20   29.95R
LAMPASAS       CLEAR     81  67  63 SE3       29.94S
$$

TXZ095>097-106>112-122>126-135>138-148>153-164>167-310500-
EAST TEXAS

CITY           SKY/WX    TMP DP  RH WIND       PRES   REMARKS
PARIS          CLOUDY    70  63  78 E16       30.00R
SULPHUR SPRNGS CLOUDY    73  67  81 E10       30.00S
CLARKSVILLE    CLOUDY    70  67  90 E6        30.01S
MOUNT PLEASANT MOCLDY    72  67  84 E8        30.01F
GILMER         PTCLDY    75  70  83 E3        30.01S
MINEOLA        MOCLDY    75  68  78 CALM      29.98F
TYLER          CLEAR     79  70  74 SE8       29.97F
LONGVIEW       PTCLDY    77  65  66 SE9       29.99R
MARSHALL       MOCLDY    78  69  71 SE3       30.02S
ATHENS         PTCLDY    77  70  78 SE5       29.96F
JACKSONVILLE   CLEAR     78  67  69 SE6       30.02R
HENDERSON      PTCLDY    77  66  68 CALM      30.00S
NACOGDOCHES    PTCLDY    77  66  69 SE7       30.00S
LUFKIN         PTCLDY    80  71  74 E6        29.99R
$$

SUPPLEMENTAL OBSERVATIONS (CENTRAL)

CITY           SKY/WX    TMP DP  RH WIND       PRES   REMARKS
$$

SUPPLEMENTAL OBSERVATIONS (WEST)

CITY           SKY/WX    TMP DP  RH WIND       PRES   REMARKS
$$

SUPPLEMENTAL OBSERVATIONS (EAST)

CITY           SKY/WX    TMP DP  RH WIND       PRES   REMARKS
$$

SUPPLEMENTAL OBSERVATIONS ARE A COLLECTION OF AUTOMATED INSTRUMENTS
THAT ARE MAINTAINED BY A VARIETY OF FEDERAL AND STATE AGENCIES.
CERTAIN ELEMENTS...SUCH AS HUMIDITY VALUES AND SUSTAINED WIND
SPEEDS...MAY BE APPROXIMATED.